Regional Weather Roundup
Issued by NWS San Angelo, TX

Home | Current Version | Previous Version | Graphics & Text | Print | Product List | Glossary Off
Versions: 1 2 3 4 5 6 7 8 9 10 11 12 13 14 15 16 17 18 19 20 21 22 23 24 25 26 27 28 29 30 31 32 33 34 35 36 37 38 39 40 41 42 43 44 45 46 47 48 49 50

000
ASUS44 KSJT 011011
RWRSJT
WEST CENTRAL TEXAS REGIONAL WEATHER ROUNDUP
NATIONAL WEATHER SERVICE SAN ANGELO TX
500 AM CDT SUN MAY 01 2016

NOTE: "FAIR" INDICATES FEW OR NO CLOUDS BELOW 12,000 FEET WITH NO
SIGNIFICANT WEATHER AND/OR OBSTRUCTIONS TO VISIBILITY.

TXZ049-054-064>066-071>073-076>078-098-099-113-114-127-128-139-140-
154-155-168>170-011100
...LOCATIONS ACROSS WEST CENTRAL TEXAS...

CITY           SKY/WX    TMP DP  RH WIND       PRES   REMARKS
SAN ANGELO     CLEAR     57  52  83 NE12      29.89R
ABILENE        CLEAR     54  48  80 N13       29.97R
DYESS AFB      CLEAR     53  48  84 N13       29.96S
JUNCTION       MOCLDY    63  58  83 E9        29.86R
SWEETWATER     PTCLDY    54  44  70 N17G29    30.00S
BROWNWOOD      NOT AVBL
COLEMAN        SUNNY     57  51  78 E6        29.93R
SONORA         CLEAR     63  57  82 NE7G13    29.90R
OZONA          FAIR      59  52  77 E9        29.89R
BRADY          NOT AVBL
$$

TEXAS PANHANDLE/OKLAHOMA PANHANDLE

CITY           SKY/WX    TMP DP  RH WIND       PRES   REMARKS
AMARILLO       CLOUDY    41  33  73 N20G30    30.10S WCI  32
BORGER         CLOUDY    41  35  79 N14       30.13R WCI  33
CANADIAN       CLOUDY    45  37  73 NW10G17   30.09R WCI  39
DALHART        CLOUDY    42  31  64 N21G28    30.12R WCI  33
DUMAS          CLOUDY    39  33  80 N22       30.11R WCI  29
GUYMON         NOT AVBL
HEREFORD       CLOUDY    42  36  80 N17G23    30.12S WCI  33
PAMPA          CLOUDY    41  36  80 N21       30.10R WCI  32
PERRYTON       CLOUDY    43  36  74 NW16G24   30.10R WCI  36
$$

SOUTHERN PANHANDLE/SOUTH PLAINS/ROLLING PLAINS

CITY           SKY/WX    TMP DP  RH WIND       PRES   REMARKS
LUBBOCK        CLOUDY    46  33  60 N23G31    30.04S WCI  38
SNYDER           N/A     52  38  58 NE24G31   29.98S
CHILDRESS      CLOUDY    50  33  52 N16       30.08R
SEMINOLE       CLOUDY    50  34  53 NE20G25   30.00R
$$

PERMIAN BASIN

CITY           SKY/WX    TMP DP  RH WIND       PRES   REMARKS
MIDLAND        CLEAR     57  41  55 NE22G36   29.92R
ODESSA         CLEAR     56  40  55 NE24G37   29.93R
WINK           PTCLDY    58  43  57 NE24G40   29.86R
$$

FAR WEST/SOUTHWEST MOUNTAINS/TRANS PECOS

CITY           SKY/WX    TMP DP  RH WIND       PRES   REMARKS
ALPINE         SUNNY     62  29  28 S8        29.88R
DRYDEN           N/A     66  52  60 E15G24    29.78R
EL PASO        PTCLDY    61  29  29 E7        29.82R
FORT STOCKTON  CLEAR     60  42  51 E15       29.81R
GUADALUPE PASS CLEAR     48  39  71 NE49G61   29.88R WCI  37
MARFA          CLEAR     41  25  53 NW8       29.87R WCI  36
PECOS          SUNNY     62  45  53 NE20G26   29.84R
$$

DALLAS/FORT WORTH METROPLEX

CITY           SKY/WX    TMP DP  RH WIND       PRES   REMARKS
DFW AIRPORT    CLEAR     61  52  72 N14       29.89S
FTW MEACHAM    PTCLDY    59  52  77 N14       29.91R
DAL-EXECUTIVE  CLEAR     61  57  87 N7        29.89R
GRAND PRAIRIE  CLEAR     61  55  82 N9        29.91R
ADDISON        CLEAR     61  53  76 N9        29.92R
MESQUITE       SUNNY     61  61  99 N7        29.89S
LANCASTER      SUNNY     61  57  88 N6        29.89S
$$

NORTH CENTRAL TEXAS

CITY           SKY/WX    TMP DP  RH WIND       PRES   REMARKS
SHRMAN/DENISON SUNNY     52  45  77 N7        29.95R
GAINESVILLE    CLEAR     53  47  82 N7        29.98R
BRIDGEPORT     SUNNY     55  49  80 CALM      29.98R
DENTON         CLEAR     55  50  83 N8        29.93R
WAXAHACHIE     SUNNY     59  59 100 N5        29.90S
GRANBURY       SUNNY     58  53  83 NW5       29.93R
$$

WESTERN NORTH TEXAS

CITY           SKY/WX    TMP DP  RH WIND       PRES   REMARKS
WICHITA FALLS  CLEAR     52  42  69 N17       30.01R
VERNON         SUNNY     50  36  57 N10       30.07R
BRECKENRIDGE   MOSUNNY   55  48  77 N6        29.98R
COMANCHE       CLEAR     57  55  92 N7        29.92R
$$

CENTRAL AND SOUTH CENTRAL TEXAS

CITY           SKY/WX    TMP DP  RH WIND       PRES   REMARKS
AUSTIN/BERGSTM PTCLDY    66  64  93 N6        29.82R
WACO           CLEAR     60  59  96 N6        29.87R
HILLSBORO      SUNNY     59  58  96 N5        29.88R
TEMPLE         CLEAR     62  61  96 NE6       29.86R
KILLEEN-GRAY   CLEAR     60  58  96 N7        29.86R
FORT HOOD      CLEAR     60  59  96 N6        29.85R
GEORGETOWN       N/A    N/A N/A N/A MISG        N/A
LAGO VISTA     FAIR      64  61  88 NE8       29.86R
SAN MARCOS     CLEAR     66  64  94 NE9       29.82S
NEW BRAUNFELS  CLEAR     68  65  90 NE15      29.79S
RANDOLPH AFB   PTCLDY    67  67 100 NE8       29.80R FOG
SAN ANTONIO    PTCLDY    69  64  84 NE13      29.80R
STINSON        CLEAR     71  65  81 NE12      29.77R
PLEASANTON     NOT AVBL
LA GRANGE        N/A     72  67  84 NE6       29.79F
GIDDINGS       SUNNY     67  65  90 NE6       29.85F
$$

EAST TEXAS

CITY           SKY/WX    TMP DP  RH WIND       PRES   REMARKS
PARIS          CLEAR     59  50  72 N7        29.90S
CLARKSVILLE    NOT AVBL
TYLER          CLEAR     64  59  83 N9        29.87S
LONGVIEW       CLEAR     64  60  87 N3        29.86S
PALESTINE      SUNNY     64  63  94 NE6       29.87S
NACOGDOCHES    CLEAR     66  64  94 N7        29.84S
$$

TEXAS HILL COUNTRY AND EDWARDS PLATEAU

CITY           SKY/WX    TMP DP  RH WIND       PRES   REMARKS
LLANO          SUNNY     61  57  88 CALM      29.90S
HORSESHOE BAY  FAIR      62  59  91 CALM      29.85S
KERRVILLE      CLOUDY    59  57  95 CALM      29.85R
FREDERICKSBRG  CLEAR     62  60  94 E5        29.86S
ROCKSPRINGS    MOSUNNY   63  59  88 CALM      29.88R
HONDO          CLOUDY    68  65  90 NE7       29.81R
UVALDE         MOSUNNY   64  63  94 NE5       29.80R
DEL RIO        CLOUDY    65  60  84 CALM      29.78R
$$

SOUTHEAST TEXAS

CITY           SKY/WX    TMP DP  RH WIND       PRES   REMARKS
COLLEGE STN    PTCLDY    69  65  86 NE12      29.82F
CALDWELL       MOSUNNY   66  66 100 NE8       29.86S
CROCKETT       SUNNY     66  64  94 NE8       29.87S
BRENHAM        CLOUDY    71  66  84 NE6       29.82F
HUNTSVILLE     PTCLDY    69  65  86 CALM      29.83F
CONROE         CLEAR     71  66  84 N8        29.81F
HOUSTON BUSH   CLOUDY    71  70  96 N9        29.79S
HOUSTON HOBBY  CLOUDY    77  75  93 N7        29.77S
PERLAND        CLOUDY    79  76  90 N3        29.78S FOG
WHARTON        CLOUDY    75  74  95 N5        29.78S FOG
$$

THE UPPER TEXAS COAST

CITY           SKY/WX    TMP DP  RH WIND       PRES   REMARKS
ORANGE         CLOUDY    77  74  91 S10G18    29.80R
PORT ARTHUR    LGT RAIN  71  68  90 S7        29.77R
GALVESTON      CLOUDY    77  77 100 S9        29.77F FOG
ANGLETON       CLOUDY    78  76  93 N3        29.76F FOG
BAY CITY       CLOUDY    76  76 100 NE3       29.76F FOG
$$

TEXAS COASTAL BEND, RIO GRANDE PLAINS DEEP SOUTH TEXAS

CITY           SKY/WX    TMP DP  RH WIND       PRES   REMARKS
VICTORIA       CLOUDY    75  74  96 NE10      29.76F FOG
BEEVILLE       CLOUDY    68  68 100 E6        29.75R FOG
ROCKPORT       CLOUDY    79  74  84 E14       29.73F
PORT ARANSAS   CLOUDY    77  77  99 E8        29.73S
PORT LAVACA    CLOUDY    75  75  99 NE9       29.76S FOG
CORPUS CHRISTI CLOUDY    79  74  84 E10       29.72S
KINGSVILLE NAS PTCLDY    74  74 100 E6        29.71F FOG
COTULLA        CLOUDY    74  69  85 E10       29.76R
LAREDO         MOCLDY    75  71  87 NE5       29.74S
BROWNSVILLE    CLOUDY    77  77 100 E6        29.71R FOG
PORT ISABEL    CLOUDY    79  78  97 SE8       29.70R FOG
HEBBRONVILLE   CLOUDY    76  71  83 SE6       29.76R
MCALLEN        CLOUDY    81  75  82 E7        29.71R
WESLACO        CLOUDY    78  75  89 E5        29.70S FOG
FALFURRIAS     PTSUNNY   76  71  84 E3        29.71S
EDINBURG       CLOUDY    79  75  88 E7        29.71S FOG
$$




USA.gov is the U.S. government's official web portal to all federal, state and local government web resources and services.